Home > Weather > Corpus Christi > Past weeks

Flag for U.S.A. Weather for the Past 2 Weeks in Corpus Christi, Texas, U.S.A.

Now
75 °F

Broken clouds.


Feels Like: 78 °F
Forecast: 60 / 77 °F
Wind: 26 mph from South

Location: Corpus Christi International Airport

Current Time: Feb 14, 2016 at 11:58:44 AM

Latest Report: Feb 14, 2016 at 10:51 AM


Visibility: 10 mi

Pressure: 30.01 "Hg

Humidity: 50%

Dew point: 55 °F

Location of Corpus ChristiLocation

Historic Weather in Corpus Christi — Graph

°F

Corpus Christi Temperature Yesterday

Maximum temperature yesterday: 77 °F (at 1:51 PM)
Minimum temperature yesterday: 50 °F (at 4:51 AM)
Average temperature yesterday: 63 °F

High & Low Weather Summary for the Past Weeks

 TemperatureHumidityPressure
High88 °F (Jan 31, 2:51 PM)100% (Feb 1, 1:51 AM)30.50 "Hg (Feb 1, 1:51 AM)
Low36 °F (Feb 5, 2:51 AM)15% (Feb 9, 12:51 PM)29.56 "Hg (Feb 2, 1:51 AM)
Average60 °F58%30.15 "Hg
* Reported Jan 30 10:51 AM — Feb 14 10:51 AM, Corpus Christi, Weather by CustomWeather, © 2016

Note: Actual official high and low records may vary slightly from our data, if they occured in-between our weather recording intervals... More about our weather records

Advertising

Corpus Christi Weather History for the Previous 24 Hours

 ConditionsComfort  
Time TempWeatherWind HumidityBarometerVisibility
10:51 AM
Sun, Feb 14
75 °FBroken clouds.26 mph50%30.01 "Hg10 mi
9:51 AM73 °FScattered clouds.23 mph64%30.02 "Hg10 mi
8:51 AM69 °FPassing clouds.16 mph76%30.03 "Hg10 mi
7:51 AM60 °FPassing clouds.12 mph90%30.04 "Hg10 mi
6:51 AM57 °FPassing clouds.8 mph93%30.05 "Hg10 mi
5:51 AM58 °FPassing clouds.8 mph93%30.04 "Hg10 mi
4:51 AM56 °FPassing clouds.9 mph93%30.05 "Hg10 mi
3:51 AM58 °FPassing clouds.8 mph87%30.05 "Hg10 mi
2:51 AM57 °FPartly cloudy.7 mph87%30.07 "Hg10 mi
1:51 AM53 °FPassing clouds.8 mph93%30.10 "Hg10 mi
12:51 AM53 °FPassing clouds.7 mph86%30.11 "Hg10 mi
11:51 PM
Sat, Feb 13
56 °FPassing clouds.8 mph84%30.14 "Hg10 mi
10:51 PM59 °FPassing clouds.9 mph81%30.16 "Hg10 mi
9:51 PM61 °FPassing clouds.10 mph75%30.16 "Hg10 mi
8:51 PM62 °FPassing clouds.9 mph73%30.18 "Hg10 mi
7:51 PM63 °FPassing clouds.9 mph68%30.19 "Hg10 mi
6:51 PM66 °FPassing clouds.12 mph61%30.19 "Hg10 mi
5:51 PM70 °FPartly sunny.17 mph55%30.20 "Hg10 mi
4:51 PM72 °FBroken clouds.17 mph52%30.21 "Hg10 mi
3:51 PM73 °FBroken clouds.18 mph50%30.21 "Hg10 mi
2:51 PM75 °FScattered clouds.20 mph45%30.23 "Hg10 mi
1:51 PM77 °FScattered clouds.13 mph40%30.26 "Hg10 mi
12:51 PM76 °FScattered clouds.10 mph43%30.29 "Hg10 mi
11:51 AM74 °FPartly sunny.9 mph48%30.32 "Hg10 mi
Weather by CustomWeather, © 2016

See weather overviewHow to use our weather pages